Location: Ashton River Estates
(39.1762°N, 77.0261°W)
Time: 19:41:04
(UTC+00:00)

SMAP - Pass Details

Date: 29 October 2020
Orbit: 681 x 683 km, 98.1° (Epoch: 03 December)

Event Time Altitude Azimuth Distance (km) Brightness Sun altitude
Rises 22:53:56 0° 177° (S) 3,030 6.5 -9.1°
Reaches altitude 10° 22:56:12 10° 182° (S) 2,119 5.8 -9.5°
Maximum altitude 23:00:45 55° 260° (W) 823 3.9 -10.4°
Drops below altitude 10° 23:05:20 10° 338° (NNW) 2,134 5.8 -11.3°
Sets 23:07:37 0° 343° (NNW) 3,053 6.5 -11.7°
